When you browse on this site, cookies collect data to enhance your experience and personalize the content and advertising you see.
Visit our Privacy Policy to learn more. By continuing to use the site, you agree to this use of cookies and data.
  • en France
  • Liste des pays
  • À 7 jours
  • Température de l'eau
  • Carte météo
  • Widgets météo
  • user-avatar
    Se connecter

    Météo par heure à Kassama

    Ce jour, 21 Août, Mercredi

    Heure Température Précipitation Vent Pression Humidité
    00:00 +25°C° 1.8 mm 1 m/s 722 mmHg 88%
    01:00 +25°C° 1.8 mm 1 m/s 721 mmHg 91%
    02:00 +25°C° 1.8 mm 1 m/s 721 mmHg 93%
    03:00 +24°C° 2.4 mm 1 m/s 721 mmHg 94%
    04:00 +24°C° 2.4 mm 1 m/s 722 mmHg 95%
    05:00 +24°C° 2.4 mm 1 m/s 722 mmHg 96%
    06:00 +24°C° 5.4 mm 1 m/s 722 mmHg 96%
    07:00 +24°C° 5.4 mm 2 m/s 723 mmHg 97%
    08:00 +23°C° 5.4 mm 2 m/s 723 mmHg 98%
    09:00 +24°C° 1.2 mm 2 m/s 723 mmHg 96%
    10:00 +25°C° 1.2 mm 2 m/s 723 mmHg 95%
    11:00 +25°C° 1.2 mm 2 m/s 724 mmHg 94%
    12:00 +27°C° 0 mm 2 m/s 723 mmHg 87%
    13:00 +28°C° 0 mm 1 m/s 722 mmHg 81%
    14:00 +29°C° 0 mm 1 m/s 721 mmHg 74%
    15:00 +29°C° 0 mm 1 m/s 721 mmHg 76%
    16:00 +29°C° 0 mm 1 m/s 721 mmHg 78%
    17:00 +29°C° 0 mm 1 m/s 720 mmHg 80%
    18:00 +28°C° 0.2 mm 1 m/s 721 mmHg 84%
    19:00 +26°C° 0.2 mm 1 m/s 721 mmHg 87%
    20:00 +25°C° 0.2 mm 1 m/s 721 mmHg 91%
    21:00 +25°C° 0 mm 1 m/s 722 mmHg 91%
    22:00 +25°C° 0 mm 1 m/s 722 mmHg 90%
    23:00 +25°C° 0 mm 1 m/s 722 mmHg 90%

    Demain, 22 Août, Jeudi

    Heure Température Précipitation Vent Pression Humidité
    00:00 +25°C° 0 mm 1 m/s 722 mmHg 90%
    01:00 +24°C° 0 mm 1 m/s 722 mmHg 90%
    02:00 +24°C° 0 mm 1 m/s 721 mmHg 91%
    03:00 +24°C° 0 mm 1 m/s 722 mmHg 91%
    04:00 +24°C° 0 mm 1 m/s 722 mmHg 91%
    05:00 +22°C° 0 mm 0 m/s 722 mmHg 91%
    06:00 +24°C° 0.1 mm 1 m/s 723 mmHg 92%
    07:00 +25°C° 0.1 mm 2 m/s 723 mmHg 93%
    08:00 +25°C° 0.1 mm 2 m/s 723 mmHg 94%
    09:00 +25°C° 0 mm 2 m/s 723 mmHg 92%
    10:00 +26°C° 0 mm 2 m/s 723 mmHg 90%
    11:00 +26°C° 0 mm 2 m/s 723 mmHg 87%
    12:00 +27°C° 0 mm 1 m/s 722 mmHg 82%
    13:00 +28°C° 0 mm 1 m/s 722 mmHg 77%
    14:00 +29°C° 0 mm 1 m/s 721 mmHg 72%
    15:00 +29°C° 0 mm 1 m/s 721 mmHg 74%
    16:00 +29°C° 0 mm 1 m/s 720 mmHg 77%
    17:00 +29°C° 0 mm 1 m/s 720 mmHg 79%
    18:00 +28°C° 0 mm 1 m/s 720 mmHg 81%
    19:00 +27°C° 0 mm 1 m/s 721 mmHg 83%
    20:00 +25°C° 0 mm 1 m/s 721 mmHg 85%
    21:00 +23°C° 0 mm 0 m/s 722 mmHg 86%
    22:00 +23°C° 0 mm 0 m/s 722 mmHg 87%
    23:00 +22°C° 0 mm 0 m/s 722 mmHg 88%

    Après-demain, 23 Août, Vendredi

    Heure Température Précipitation Vent Pression Humidité
    00:00 +22°C° 0 mm 0 m/s 722 mmHg 89%
    01:00 +22°C° 0 mm 0 m/s 721 mmHg 90%
    02:00 +24°C° 0 mm 1 m/s 721 mmHg 92%
    03:00 +24°C° 0 mm 1 m/s 721 mmHg 92%
    04:00 +23°C° 0 mm 1 m/s 722 mmHg 93%
    05:00 +21°C° 0 mm 0 m/s 722 mmHg 93%
    06:00 +24°C° 0 mm 1 m/s 723 mmHg 90%
    07:00 +25°C° 0 mm 1 m/s 723 mmHg 88%
    08:00 +26°C° 0 mm 1 m/s 724 mmHg 85%
    09:00 +26°C° 0.3 mm 1 m/s 724 mmHg 85%
    10:00 +27°C° 0.3 mm 2 m/s 724 mmHg 86%
    11:00 +27°C° 0.3 mm 2 m/s 724 mmHg 86%
    12:00 +27°C° 0 mm 2 m/s 723 mmHg 82%
    13:00 +28°C° 0 mm 1 m/s 722 mmHg 78%
    14:00 +29°C° 0 mm 1 m/s 721 mmHg 74%
    15:00 +29°C° 0.3 mm 1 m/s 721 mmHg 77%
    16:00 +29°C° 0.3 mm 1 m/s 721 mmHg 79%
    17:00 +29°C° 0.3 mm 1 m/s 720 mmHg 82%
    18:00 +28°C° 1.8 mm 1 m/s 721 mmHg 85%
    19:00 +26°C° 1.8 mm 1 m/s 721 mmHg 88%
    20:00 +25°C° 1.8 mm 1 m/s 722 mmHg 91%
    21:00 +25°C° 0 mm 1 m/s 722 mmHg 92%
    22:00 +25°C° 0 mm 1 m/s 722 mmHg 93%
    23:00 +24°C° 0 mm 1 m/s 722 mmHg 95%

    24 Août, Samedi

    Heure Température Précipitation Vent Pression Humidité
    00:00 +22°C° 0 mm 0 m/s 722 mmHg 94%
    01:00 +22°C° 0 mm 0 m/s 722 mmHg 94%
    02:00 +22°C° 0 mm 0 m/s 722 mmHg 94%
    03:00 +22°C° 0 mm 0 m/s 722 mmHg 94%
    04:00 +22°C° 0 mm 0 m/s 722 mmHg 94%
    05:00 +22°C° 0 mm 0 m/s 723 mmHg 94%
    06:00 +25°C° 0.4 mm 1 m/s 723 mmHg 93%
    07:00 +25°C° 0.4 mm 1 m/s 724 mmHg 92%
    08:00 +26°C° 0.4 mm 1 m/s 724 mmHg 90%
    09:00 +26°C° 1.5 mm 1 m/s 724 mmHg 89%
    10:00 +27°C° 1.5 mm 1 m/s 724 mmHg 88%
    11:00 +27°C° 1.5 mm 1 m/s 724 mmHg 87%
    12:00 +27°C° 1 mm 1 m/s 723 mmHg 88%
    13:00 +27°C° 1 mm 1 m/s 723 mmHg 89%
    14:00 +27°C° 1 mm 1 m/s 722 mmHg 90%
    15:00 +27°C° 0.1 mm 1 m/s 722 mmHg 91%
    16:00 +26°C° 0.1 mm 1 m/s 722 mmHg 91%
    17:00 +24°C° 0.1 mm 0 m/s 721 mmHg 92%
    18:00 +24°C° 0 mm 0 m/s 722 mmHg 93%
    19:00 +25°C° 0 mm 1 m/s 722 mmHg 94%
    20:00 +24°C° 0 mm 1 m/s 722 mmHg 95%
    21:00 +24°C° 0.1 mm 1 m/s 722 mmHg 95%
    22:00 +24°C° 0.1 mm 1 m/s 723 mmHg 95%
    23:00 +22°C° 0.1 mm 0 m/s 723 mmHg 96%

    25 Août, Dimanche

    Heure Température Précipitation Vent Pression Humidité
    00:00 +24°C° 0.5 mm 1 m/s 723 mmHg 96%
    01:00 +24°C° 0.5 mm 1 m/s 722 mmHg 96%
    02:00 +23°C° 0.5 mm 1 m/s 722 mmHg 95%
    03:00 +21°C° 0.1 mm 0 m/s 722 mmHg 95%
    04:00 +21°C° 0.1 mm 0 m/s 722 mmHg 96%
    05:00 +21°C° 0.1 mm 0 m/s 722 mmHg 96%
    06:00 +22°C° 0 mm 0 m/s 723 mmHg 94%
    07:00 +23°C° 0 mm 0 m/s 723 mmHg 92%
    08:00 +24°C° 0 mm 0 m/s 724 mmHg 91%
    09:00 +25°C° 0.7 mm 0 m/s 724 mmHg 85%
    10:00 +29°C° 0.7 mm 1 m/s 724 mmHg 80%
    11:00 +30°C° 0.7 mm 1 m/s 724 mmHg 74%
    12:00 +30°C° 2.2 mm 1 m/s 723 mmHg 77%
    13:00 +27°C° 2.2 mm 0 m/s 722 mmHg 80%
    14:00 +27°C° 2.2 mm 0 m/s 722 mmHg 83%
    15:00 +26°C° 0.1 mm 0 m/s 721 mmHg 84%
    16:00 +28°C° 0.1 mm 1 m/s 721 mmHg 86%
    17:00 +27°C° 0.1 mm 1 m/s 721 mmHg 87%
    18:00 +26°C° 0 mm 1 m/s 721 mmHg 88%
    19:00 +25°C° 0 mm 1 m/s 721 mmHg 88%
    20:00 +23°C° 0 mm 0 m/s 722 mmHg 89%
    21:00 +24°C° 0 mm 1 m/s 722 mmHg 89%
    22:00 +24°C° 0 mm 1 m/s 722 mmHg 90%
    23:00 +24°C° 0 mm 1 m/s 723 mmHg 90%

    26 Août, Lundi

    Heure Température Précipitation Vent Pression Humidité
    00:00 +24°C° 0 mm 1 m/s 722 mmHg 90%
    01:00 +24°C° 0 mm 1 m/s 722 mmHg 91%
    02:00 +24°C° 0 mm 1 m/s 722 mmHg 91%
    03:00 +24°C° 0.2 mm 1 m/s 722 mmHg 92%
    04:00 +23°C° 0.2 mm 1 m/s 722 mmHg 93%
    05:00 +23°C° 0.2 mm 1 m/s 722 mmHg 93%
    06:00 +24°C° 0.1 mm 1 m/s 723 mmHg 93%
    07:00 +24°C° 0.1 mm 2 m/s 723 mmHg 92%
    08:00 +25°C° 0.1 mm 2 m/s 724 mmHg 91%
    09:00 +26°C° 1 mm 2 m/s 724 mmHg 90%
    10:00 +27°C° 1 mm 2 m/s 724 mmHg 88%
    11:00 +28°C° 1 mm 3 m/s 723 mmHg 86%
    12:00 +28°C° 1.8 mm 3 m/s 723 mmHg 87%
    13:00 +28°C° 1.8 mm 3 m/s 722 mmHg 87%
    14:00 +28°C° 1.8 mm 2 m/s 722 mmHg 87%
    15:00 +27°C° 0.9 mm 2 m/s 722 mmHg 89%
    16:00 +27°C° 0.9 mm 2 m/s 721 mmHg 90%
    17:00 +26°C° 0.9 mm 1 m/s 721 mmHg 92%
    18:00 +25°C° 0 mm 1 m/s 722 mmHg 93%
    19:00 +25°C° 0 mm 1 m/s 722 mmHg 94%
    20:00 +24°C° 0 mm 1 m/s 723 mmHg 94%
    21:00 +24°C° 0 mm 1 m/s 723 mmHg 95%
    22:00 +24°C° 0 mm 1 m/s 723 mmHg 95%
    23:00 +24°C° 0 mm 1 m/s 723 mmHg 95%
    Voir plus